Location: Newark
(34.0635°N, 86.7609°W)
Time: 00:39:38
(UTC+00:00)

N. Korean satellite - Pass Details

Date: 16 December 2019
Orbit: 454 x 507 km, 97.2° (Epoch: 21 January)

Event Time Altitude Azimuth Distance (km) Brightness Sun altitude
Rises 11:54:27 0° 3° (N) 2,505 10.0 -10.5°
Reaches altitude 10° 11:56:35 10° 356° (N) 1,617 9.0 -10.1°
Maximum altitude 11:59:52 41° 285° (WNW) 681 6.8 -9.5°
Drops below altitude 10° 12:03:05 10° 214° (SW) 1,589 9.1 -8.8°
Sets 12:05:10 0° 207° (SSW) 2,454 10.1 -8.4°
